Terminal Aerodrome Forecast
Issued by NWS Sterling, VA

Home | Current Version | Previous Version | Text Only | Print | Product List | Glossary On
Versions: 1 2 3 4 5 6 7 8 9 10 11 12 13 14 15 16 17 18 19 20 21 22 23 24
000
FTUS41 KLWX 302300 RRA
TAFIAD
TAF
KIAD 302342Z 3100/0106 34004KT P6SM BKN060
     FM310200 00000KT P6SM SCT060
     FM311300 04004KT P6SM BKN050
     FM311800 09005KT P6SM BKN060=

USA.gov is the U.S. government's official web portal to all federal, state and local government web resources and services.